Location: Pcim
(49.7500°N, 19.9670°E)
Time: 14:42:30
(UTC+02:00)

NOAA 18 - Pass Details

Date: 04 May 2024
Orbit: 837 x 859 km, 98.9° (Epoch: 21 May)

Event Time Altitude Azimuth Distance (km) Brightness Sun altitude
Exits shadow 23:16:29 30° 210° (SSW) 1,504 6.2 -21.6°
Maximum altitude 23:18:46 45° 261° (W) 1,161 5.9 -21.7°
Drops below altitude 10° 23:24:04 10° 334° (NNW) 2,495 8.8 -22.0°
Sets 23:26:33 0° 341° (NNW) 3,432 9.9 -22.1°
